sat.trackr.live / text

‹ back to catalog

STARLINK-34903

NORAD 65372 · 2025-190X

PAYLOAD ACTIVE UNKNOWN

§ Identity

Operator
Country
US
Launch date
2025-08-28
Launch site
AFETR
Launch vehicle
Mass (kg)
RCS (m²)

Purposes: comms

External: N2YO · Heavens-Above · Gunter

§ Orbital elements

Epoch: 2026-09-20T22:08:27.963168Z

Period
93.85 min
Inclination
53.1597°
Eccentricity
0.0000947
Mean motion
15.34387749 rev/d
Perigee alt
462.1 km
Apogee alt
463.4 km
Semi-major
6,840.9 km
B*
4.1318e-4
RAAN
339.3942°
Arg perigee
98.3936°
Mean anomaly
261.7174°
Rev number
5,967

§ Raw data

STARLINK-349031 65372U 25190X   26263.92254587  .00013604  00000+0  41318-3 0  99942 65372  53.1597 339.3942 0000947  98.3936 261.7174 15.34387749 59672

JSON: /api/v1/satellites/65372 · /tle

For live sub-satellite position, see the globe view (requires WebGL).

§ Visibility from observer

Set your observer location to see the next 7 days of passes ≥ 10°. The values pass through the URL so the page stays shareable.

No JS? Fill the form by hand. The geolocation button needs JavaScript.